Location: Clanezzo
(45.7500°N, 9.6000°E)
Time: 03:13:25
(UTC+00:00)

Cosmos 1733 - Pass Details

Date: 12 May 2021
Orbit: 505 x 520 km, 82.5° (Epoch: 18 June)

Event Time Altitude Azimuth Distance (km) Brightness Sun altitude
Rises 23:42:34 0° 351° (N) 2,621 8.0 -25.6°
Reaches altitude 10° 23:44:42 10° 352° (N) 1,733 6.8 -25.6°
Enters shadow 23:47:31 48° 356° (N) 671 4.0 -25.5°
